Wind_Speed
59 59 58 56 52 50 48 44 42 43 39 38 35 35 32 31 28 26 24 23 23 21 21 21 20 19 19 20 19 20 20 21 22 24 25 26 27 28 28 28 30 30 31 31
59 56 54 52 51 49 45 45 46 44 42 40 38 36 36 30 29 28 26 24 25 24 24 24 24 24 24 24 24 24 24 24 24 25 26 28 29 30 31 31 33 35 35 35
54 54 58 52 49 50 48 48 48 47 43 41 38 39 37 33 31 30 28 26 26 26 26 26 26 27 27 27 28 28 29 28 28 29 29 31 32 33 35 36 37 38 39 40
55 56 50 50 51 48 46 49 47 47 44 44 42 40 41 35 33 32 30 28 27 28 27 27 27 28 29 30 31 32 33 33 33 33 33 34 34 35 37 38 40 42 42 44
56 53 52 50 47 48 49 48 47 46 44 45 42 44 44 39 36 32 32 30 29 29 29 30 30 30 30 30 31 32 34 35 36 36 36 36 37 38 39 41 41 43 45 46
53 49 51 52 50 50 49 47 47 47 47 48 45 46 45 40 35 33 33 33 32 31 31 32 32 32 32 32 32 33 34 34 35 36 37 37 38 39 40 42 44 46 47 49
55 53 52 52 51 52 51 50 49 50 51 52 48 45 44 39 36 36 36 34 33 33 33 33 33 33 33 34 34 34 34 35 36 37 38 38 39 41 42 44 45 47 49 50
53 55 54 54 53 52 51 50 51 51 51 48 45 45 46 39 39 38 37 37 36 35 35 35 35 35 35 35 36 36 37 38 39 39 40 40 41 43 45 46 48 49 51 53
49 49 49 51 51 50 51 51 50 49 48 48 48 45 44 42 42 39 37 37 36 36 36 36 36 37 36 36 36 37 38 39 39 40 41 41 43 44 46 48 50 52 53 54
46 48 49 51 51 52 50 46 47 48 47 48 50 49 47 42 38 37 37 36 35 36 36 36 36 36 37 38 39 40 40 39 40 41 43 45 47 49 50 52 53 53 53 55
52 51 51 51 51 49 49 50 49 47 47 48 48 49 43 40 40 39 38 37 37 36 37 37 37 39 39 39 39 39 41 42 43 45 47 49 50 51 49 49 51 54 56 58
49 51 51 49 51 49 47 47 44 46 47 47 46 46 42 41 39 38 36 36 36 37 38 40 41 41 41 42 43 45 47 48 49 51 51 52 51 49 50 52 55 57 59 59
51 49 49 49 50 49 52 49 46 47 49 47 45 45 42 40 40 40 40 39 39 41 42 42 43 44 45 47 48 50 51 53 53 54 53 51 50 52 54 58 59 59 58 58
52 50 53 53 49 48 51 52 49 47 46 43 44 41 42 43 42 42 43 44 45 46 46 47 49 50 51 52 53 53 54 55 56 55 53 53 55 59 62 61 59 58 58 59
54 61 57 57 54 52 50 51 53 52 46 49 45 47 48 51 52 53 54 52 51 54 56 55 56 55 56 56 56 57 58 58 56 54 56 60 63 62 59 58 59 60 61 63
51 52 68 61 58 57 60 60 58 55 54 58 58 59 58 63 62 63 61 63 61 61 60 58 57 59 60 61 62 61 60 58 58 61 64 64 61 58 60 63 63 64 67 68
55 53 51 57 63 66 68 62 61 60 61 61 63 55 57 57 56 54 56 58 59 60 60 60 61 62 63 62 60 58 59 62 64 64 63 61 61 65 65 66 68 70 72 74
57 59 60 58 57 64 66 64 62 62 61 62 64 60 57 55 54 60 60 59 60 61 61 60 60 61 60 60 60 62 63 63 62 63 64 66 67 68 70 72 74 76 77 80
66 63 60 64 67 66 62 58 58 58 56 55 54 57 61 63 63 63 61 61 61 61 61 60 61 62 62 62 63 63 63 63 65 67 69 70 72 73 75 76 78 81 84 86
56 61 71 67 67 67 51 56 57 60 60 53 56 57 56 57 60 56 56 58 60 62 62 62 62 62 61 60 62 64 65 66 68 70 73 75 75 77 78 80 84 86 89 91
54 55 55 59 64 64 58 62 61 64 56 57 55 54 55 57 56 56 55 56 57 57 58 59 58 60 61 63 65 67 68 69 71 74 76 76 77 80 83 86 89 89 91 91
53 54 54 52 54 55 51 52 50 49 48 51 54 54 54 55 54 55 55 56 56 56 57 56 57 59 61 65 67 69 72 74 74 74 76 79 82 83 84 85 85 84 85 87
59 57 57 55 53 51 51 49 52 54 56 55 56 57 57 56 55 54 54 54 55 55 55 57 59 62 65 67 68 70 72 74 75 75 76 78 79 77 78 79 80 82 85 88
61 61 61 58 56 54 54 55 56 57 57 57 57 56 56 56 56 55 54 54 54 55 56 59 62 64 66 68 69 70 71 71 72 72 72 72 72 74 77 79 83 85 88 90
65 64 61 60 58 57 56 56 57 57 57 55 55 56 57 58 58 58 58 59 60 61 61 61 63 64 66 66 66 66 66 66 67 69 71 73 74 77 79 81 83 87 90 92
67 66 63 61 61 61 59 58 58 59 59 60 62 62 62 61 62 63 65 64 65 65 63 61 61 60 60 62 62 62 64 67 70 71 73 75 76 78 80 82 83 86 89 90
Wind_Direction
197 200 199 200 201 202 201 202 202 203 203 205 206 209 208 212 221 225 227 234 239 241 245 248 250 250 251 253 256 257 257 258 260 261 263 267 270 274 275 276 277 278 280 285
199 200 202 203 203 205 203 206 205 203 207 209 210 213 218 214 222 230 235 240 247 250 253 255 256 257 257 258 259 258 258 260 260 262 264 266 270 272 274 274 277 282 285 287
202 201 203 203 207 206 204 208 207 209 210 212 213 217 223 223 227 233 239 243 250 255 257 257 258 259 261 261 263 263 263 264 264 265 267 267 268 270 273 275 277 280 282 285
204 203 206 207 207 209 210 212 211 213 214 216 216 220 225 226 230 236 240 243 247 253 255 256 255 255 256 258 259 261 264 266 267 268 267 269 270 271 274 275 278 279 281 283
206 205 208 209 211 214 214 216 215 217 221 220 219 226 227 229 233 235 242 245 246 250 254 257 257 257 257 257 258 259 261 264 266 267 268 269 271 272 273 276 278 279 281 282
211 209 210 210 212 215 215 217 220 222 224 224 225 228 230 231 237 239 241 245 246 249 253 256 258 259 260 260 259 261 262 263 264 267 268 270 272 273 275 277 279 281 282 283
205 207 210 212 214 215 216 217 222 224 225 224 227 231 235 233 239 242 246 247 247 250 253 255 256 257 257 259 261 263 264 266 267 269 270 272 274 276 278 279 280 282 283 284
211 208 208 211 214 219 221 221 226 228 230 232 233 233 236 239 242 244 247 249 250 251 253 254 256 258 259 259 261 263 265 266 268 270 273 274 276 277 278 280 282 283 284 285
211 214 217 218 218 218 220 221 227 230 233 234 235 237 238 239 242 245 248 250 252 254 255 257 259 260 262 263 264 264 265 266 269 272 274 277 279 280 282 283 285 286 286 288
213 217 218 219 220 219 222 225 227 230 234 237 238 238 240 242 245 246 249 251 252 253 256 258 260 262 263 263 264 266 268 271 273 275 277 279 280 282 283 284 284 286 288 288
216 219 219 220 220 222 225 226 228 231 234 238 241 242 242 244 245 247 248 250 253 256 258 259 261 263 264 266 268 271 273 274 276 279 280 281 283 286 285 286 288 290 290 289
217 220 221 223 224 225 228 228 230 234 236 240 245 245 246 244 245 247 250 252 255 257 259 261 265 268 271 274 276 278 280 282 282 282 284 286 286 284 284 287 289 290 289 289
219 224 224 225 225 223 225 229 229 232 233 233 239 242 246 247 248 250 253 258 262 262 263 266 270 275 277 278 278 279 279 281 284 285 285 284 283 284 287 290 290 289 288 289
222 229 228 229 231 236 233 235 235 237 239 240 244 248 248 249 251 254 258 262 265 268 271 273 274 275 276 276 278 280 283 285 285 285 284 284 284 287 290 290 289 288 288 290
231 230 230 223 227 232 231 233 233 237 238 249 239 247 249 249 255 257 259 262 268 272 274 274 275 277 279 280 282 283 283 283 283 282 283 286 288 288 288 288 289 290 291 292
242 241 228 232 232 236 237 236 237 240 241 247 244 250 253 255 255 259 263 271 273 274 270 270 272 275 277 278 279 281 282 283 283 285 287 288 287 287 289 290 291 292 293 294
233 238 241 239 238 238 242 237 241 242 245 249 250 251 262 259 260 261 262 263 265 268 270 271 273 275 277 278 279 280 280 282 283 284 285 286 287 289 291 291 292 293 294 295
233 238 238 239 241 244 239 242 246 248 250 252 254 255 260 261 261 260 261 265 269 270 272 273 275 275 277 279 280 281 281 282 282 284 286 288 289 289 289 290 291 293 295 297
234 233 234 237 241 247 246 246 249 252 252 254 255 257 258 259 261 262 265 267 267 269 271 273 274 276 277 278 279 279 280 283 285 286 286 286 287 287 288 290 292 294 296 298
232 237 234 238 242 247 251 253 253 254 254 256 256 256 258 259 261 265 266 267 268 269 270 272 273 274 275 276 275 278 281 282 282 282 283 283 283 285 289 291 293 294 295 298
231 229 233 239 245 249 249 252 253 254 260 257 258 258 259 262 264 263 263 264 266 268 270 271 271 271 272 273 275 278 279 280 279 279 280 282 286 288 289 291 292 295 296 297
237 235 239 239 239 244 247 249 254 259 261 262 261 259 259 260 262 263 264 265 267 268 269 269 269 271 271 273 275 275 274 274 277 280 283 284 286 288 290 293 294 295 296 297
240 240 242 242 246 249 251 255 258 260 261 261 262 263 263 263 263 264 265 265 265 267 268 270 270 268 267 269 272 273 275 278 280 282 284 286 289 292 293 294 295 296 296 297
242 243 242 245 246 250 251 253 254 257 258 260 261 264 266 267 267 268 269 271 272 271 270 269 268 270 271 273 275 276 278 280 283 285 288 291 293 294 294 294 295 297 298 299
234 236 243 246 248 249 249 251 252 252 256 259 261 265 267 270 271 272 273 273 272 273 274 274 274 274 274 275 277 279 282 285 289 291 292 293 293 293 293 294 296 298 301 303
234 238 241 243 244 245 246 245 245 249 253 256 258 261 264 266 269 271 271 271 272 273 274 275 276 276 276 278 281 284 286 288 289 290 290 290 291 292 294 297 300 304 305 305
Height
5752 5760 5769 5777 5784 5791 5799 5805 5812 5814 5821 5824 5828 5830 5834 5836 5839 5843 5845 5847 5850 5854 5856 5857 5858 5859 5861 5862 5862 5863 5864 5865 5866 5865 5865 5865 5864 5863 5863 5862 5862 5861 5860 5859
5747 5757 5767 5773 5779 5787 5795 5800 5804 5810 5814 5819 5823 5828 5828 5833 5836 5839 5841 5843 5846 5848 5851 5852 5854 5855 5856 5858 5858 5858 5859 5859 5860 5860 5861 5861 5861 5860 5858 5856 5855 5855 5855 5854
5744 5753 5757 5767 5776 5781 5787 5793 5799 5804 5810 5813 5819 5821 5824 5828 5831 5834 5837 5838 5840 5843 5845 5847 5848 5850 5851 5852 5853 5853 5853 5854 5854 5855 5855 5855 5856 5855 5854 5854 5851 5849 5847 5846
5737 5746 5756 5764 5770 5776 5782 5788 5794 5798 5803 5806 5811 5816 5818 5823 5826 5829 5832 5834 5836 5838 5840 5842 5843 5844 5845 5847 5847 5848 5848 5848 5848 5848 5849 5848 5849 5849 5848 5847 5846 5844 5841 5839
5734 5742 5750 5756 5764 5770 5774 5781 5786 5791 5795 5800 5804 5807 5811 5817 5820 5824 5827 5829 5830 5833 5834 5836 5837 5838 5839 5840 5841 5842 5842 5842 5842 5842 5841 5841 5841 5841 5840 5839 5838 5836 5834 5831
5728 5739 5742 5748 5756 5762 5768 5774 5779 5783 5787 5789 5796 5799 5803 5810 5816 5818 5820 5823 5825 5826 5828 5829 5830 5831 5832 5833 5834 5834 5835 5834 5834 5835 5834 5834 5834 5833 5832 5830 5829 5828 5825 5823
5720 5728 5736 5743 5749 5754 5761 5766 5770 5774 5775 5780 5787 5792 5797 5804 5808 5811 5814 5816 5818 5820 5821 5822 5823 5824 5825 5826 5827 5827 5827 5827 5827 5826 5826 5826 5825 5825 5824 5822 5820 5818 5816 5813
5717 5723 5728 5734 5740 5750 5756 5760 5763 5766 5772 5778 5783 5786 5790 5799 5801 5804 5806 5808 5810 5812 5813 5815 5816 5817 5818 5819 5819 5819 5819 5818 5818 5818 5818 5817 5817 5815 5814 5812 5811 5808 5806 5803
5713 5715 5724 5731 5736 5742 5744 5749 5756 5761 5765 5768 5773 5780 5785 5789 5793 5796 5799 5801 5802 5804 5805 5806 5808 5809 5810 5810 5811 5810 5810 5809 5809 5809 5808 5807 5806 5805 5803 5802 5799 5796 5794 5791
5707 5711 5718 5724 5728 5732 5739 5745 5748 5752 5756 5760 5763 5769 5775 5783 5787 5789 5790 5792 5793 5795 5796 5798 5800 5801 5802 5802 5801 5801 5801 5802 5801 5801 5800 5799 5797 5795 5792 5790 5788 5786 5783 5779
5697 5703 5710 5714 5719 5726 5731 5734 5740 5745 5749 5752 5756 5763 5771 5775 5777 5779 5780 5783 5785 5787 5788 5790 5791 5791 5791 5792 5792 5792 5792 5792 5791 5790 5789 5787 5785 5783 5781 5779 5777 5773 5770 5767
5689 5694 5700 5708 5712 5717 5723 5728 5732 5736 5743 5744 5749 5754 5762 5765 5767 5770 5772 5774 5775 5777 5779 5779 5779 5780 5780 5781 5781 5780 5780 5780 5779 5777 5775 5774 5771 5769 5768 5766 5763 5760 5756 5753
5681 5683 5689 5693 5700 5705 5712 5719 5724 5726 5728 5732 5737 5747 5752 5755 5760 5762 5763 5764 5765 5766 5766 5766 5768 5769 5770 5770 5769 5769 5768 5768 5767 5765 5763 5761 5759 5757 5755 5752 5749 5745 5742 5738
5669 5674 5680 5688 5702 5705 5708 5714 5718 5718 5719 5730 5732 5743 5743 5746 5748 5750 5749 5749 5751 5753 5754 5756 5757 5758 5758 5757 5757 5757 5756 5755 5753 5752 5750 5749 5747 5745 5742 5739 5735 5731 5727 5724
5656 5664 5671 5680 5683 5687 5695 5698 5702 5704 5714 5713 5728 5727 5731 5734 5735 5735 5735 5740 5743 5744 5743 5744 5744 5744 5744 5744 5744 5743 5742 5741 5740 5738 5736 5735 5732 5730 5726 5723 5719 5716 5712 5708
5646 5652 5662 5667 5673 5677 5680 5685 5691 5698 5705 5705 5714 5714 5723 5724 5724 5725 5728 5727 5729 5731 5730 5729 5730 5731 5731 5731 5730 5729 5728 5726 5724 5722 5720 5719 5716 5713 5710 5707 5703 5699 5696 5691
5638 5645 5650 5654 5659 5663 5661 5679 5684 5690 5694 5699 5700 5716 5707 5710 5713 5715 5714 5714 5714 5715 5716 5716 5716 5718 5718 5717 5716 5715 5713 5712 5710 5708 5705 5703 5701 5698 5694 5691 5687 5683 5679 5675
5626 5634 5638 5641 5644 5640 5662 5667 5673 5676 5682 5685 5691 5699 5696 5698 5701 5697 5701 5704 5702 5703 5703 5704 5703 5703 5702 5702 5701 5700 5699 5696 5694 5692 5690 5686 5684 5681 5678 5675 5671 5666 5661 5656
5617 5622 5624 5626 5631 5638 5646 5656 5661 5664 5671 5675 5680 5682 5682 5682 5682 5684 5690 5690 5689 5689 5689 5690 5689 5689 5688 5687 5685 5684 5683 5682 5679 5677 5674 5671 5668 5665 5662 5658 5653 5646 5642 5636
5604 5609 5613 5616 5618 5623 5646 5643 5647 5648 5650 5665 5664 5665 5668 5669 5667 5677 5676 5674 5673 5674 5675 5675 5675 5674 5673 5672 5671 5670 5668 5666 5663 5660 5657 5655 5652 5649 5645 5640 5634 5628 5623 5618
5593 5596 5600 5605 5607 5616 5626 5631 5633 5634 5649 5647 5650 5652 5653 5653 5658 5658 5659 5658 5659 5660 5660 5660 5660 5660 5659 5658 5657 5656 5654 5650 5647 5645 5642 5638 5634 5630 5625 5622 5615 5610 5604 5598
5584 5589 5593 5597 5601 5606 5615 5618 5623 5629 5630 5631 5632 5636 5638 5639 5642 5644 5645 5645 5646 5645 5646 5645 5645 5645 5644 5644 5642 5641 5638 5635 5632 5629 5625 5621 5617 5611 5607 5602 5595 5587 5580 5575
5571 5575 5581 5588 5595 5601 5605 5609 5610 5612 5614 5616 5617 5619 5622 5625 5627 5629 5631 5631 5631 5632 5632 5631 5631 5631 5630 5629 5628 5625 5623 5619 5615 5611 5607 5603 5598 5592 5586 5581 5574 5566 5557 5550
5558 5564 5568 5576 5585 5588 5591 5594 5596 5595 5596 5599 5602 5605 5606 5608 5610 5613 5615 5615 5615 5615 5615 5615 5616 5616 5615 5613 5611 5608 5604 5600 5597 5592 5587 5583 5579 5573 5566 5559 5552 5545 5537 5530
5545 5550 5558 5564 5571 5574 5578 5579 5579 5580 5582 5585 5587 5589 5591 5593 5594 5595 5597 5598 5599 5599 5598 5597 5597 5597 5595 5593 5592 5589 5586 5582 5578 5574 5569 5564 5559 5553 5548 5541 5534 5526 5516 5506
5534 5543 5545 5553 5555 5556 5562 5562 5563 5566 5568 5570 5571 5574 5576 5579 5580 5581 5581 5582 5582 5580 5579 5579 5578 5577 5576 5575 5573 5571 5568 5564 5560 5555 5550 5545 5541 5535 5529 5524 5519 5506 5495 5484